カタログに戻る

STARLINK-32878

運用中通信VLEO
NORAD 62892·PAYLOAD·🇺🇸 United States

打ち上げ Feb 4, 2025 から Cape Canaveral Space Force Station

Loading…

次のパス (今後24時間)

TLE

最新Source: CelesTrak SupGP

元期: Sep 14, 2026, 21:45 UTC

1 62892C 25024P   26257.90673611 -.00024861  00000+0 -90041-3 0  2571
2 62892  43.0019 336.9016 0001581 275.2322  51.2429 15.27592755    14

AllMySatでSTARLINK-32878をリアルタイム追跡

Download on the App Store